Regional Weather Roundup
Issued by NWS Goodland, KS

Home | Current Version | Previous Version | Text Only | Print | Product List | Glossary Off
Versions: 1 2 3 4 5 6 7 8 9 10 11 12 13 14 15 16 17 18 19 20 21 22 23 24 25 26 27 28 29 30 31 32 33 34 35 36 37 38 39 40 41 42 43 44 45 46 47 48 49 50

000
ASUS43 KGLD 220208
RWRGLD

GOODLAND FORECAST AREA HOURLY WEATHER ROUNDUP
NATIONAL WEATHER SERVICE GOODLAND KS
800 PM MDT SUN MAY 21 2017

...OFFICIAL OBSERVATIONS...

CITY           SKY/WX    TMP DP  RH WIND       PRES   REMARKS
GOODLAND KS    CLEAR     56  50  80 SE7       30.12R
HILL CITY KS   CLOUDY    63  52  67 E8        30.10S
IMPERIAL NEB   MOCLDY    58  45  62 N13       30.13R
MCCOOK NEB     PTCLDY    62  43  49 N5        30.08R
AKRON CO       CLOUDY    53  45  74 N12       30.19R
BURLINGTON CO  CLEAR     56  47  71 SE8       30.13R
LIMON CO       LGT RAIN  47  43  86 N22G40    30.20R
$$

...UNOFFICIAL OBSERVATIONS...

CITY           SKY/WX    TMP DP  RH WIND       PRES   REMARKS
NORTON KS      CLEAR     61  43  51 CALM      30.08S
SHARON SPRINGS   N/A     58  48  69 SE12G18     N/A
TRENTON NEB      N/A     62  32  32 CALM        N/A
KIT CARSON CO    N/A     59  45  58 MISG        N/A
YUMA CO        LGT RAIN  50  41  71 N12       30.16R
$$




USA.gov is the U.S. government's official web portal to all federal, state and local government web resources and services.